BREEZE-M DEB, 39328

Orbit data source: Space-Track

BREEZE-M DEB, 39328 is space debris in HEO originally from a launch on Fri, 14 Mar 2008 UTC launched from the Tyuratam Missile And Space Complex (TTMTR). Debris objects in space refer to the collection of defunct objects orbiting the Earth. Examples of debris include non-operational satellites, rocket bodies, and fragments generated from explosions, collisions, or faulty payload assembly.

Loading next visibility...
Identifier
39328, 2008-011DF
Orbit
HEO
Country
Flag of CISCIS
Related business
Manufacturer
Unknown
Mission
Spacecraft
Bus & Motor
Unknown
Mass
Unknown
Launch date (UTC)
2008-03-14 (18 years ago)
Launch vehicle
Unknown
Launch site
Tyuratam Missile And Space Complex (TTMTR)
Object type
Payload
Rocket body
Debris
Shape & HBR
Unknown shape, 0.2 m
Radar Cross Section
Medium (>0.1 m² and <1 m²)

Expand to show TLE details & history
Last TLE update: 1 month ago

TLE from 1 month ago
0 BREEZE-M DEB
1 39328U 08011DF  26140.43703287  .00000709  00000-0  35531-1 0  9996
2 39328  48.3975 164.8481 6416538 101.1225 332.4510  2.95973630    13
Epoch: 2026-05-20T10:29Z
TLE epoch observation values (Epoch: 2026-05-20T10:29:19.639Z)
Latitude
-0.00004°
Longitude
129.43792°
Altitude
7,355.903 km
Speed
6.213 km/s
True Right ascension
10h 59m 27s
True Declination
0° 00' 00"
Sunlit
Object was in daylight at epoch
Visualization orbit readout
Latitude
Unknown
Longitude
Unknown
Altitude
Unknown
Speed
Unknown
Apparent Right ascension
Unknown
Apparent Declination
Unknown
Sunlit
N/A
Visualization observer readout
Local Sidereal Time
03:28:43
Azimuth
Unknown
Elevation
Unknown
Doppler factor
Unknown
Orbital elements
Apogee altitude
27,262.532 km
Perigee altitude
965.071 km
Semi-major axis
20,491.938 km
Eccentricity
0.64165
Inclination
48.3975°
RAAN
164.8481°
Arg. of periapsis
101.1225°
True anomaly
258.99312°
Mean anomaly
332.451°
Eccentric anomaly
300.90754°
Mean motion
0.73989 °/min
Orbital period
486.56 mins
BSTAR
0.035531
Loading maneuver chart data...
Computing Atmospheric mass density...
Loading historical data...
Loading historical data...
Loading historical data...
Loading historical data...
Loading historical data...
Loading historical data...
Loading historical data...

Documentation

Showing up to 5 results
|